PBD6969 URMM-URSS

Flight info

Callsign PBD6969
Flight time 0h 40m
Altitude 28000
Route ABELA5M ABELA B967 ERSAR G487 BINOL BINOL1K
Aircraft B738/M-SDE2E3FGHIRWXY/LB1

Departure

Time 2026-04-20 18:41
Airport Mineralnye Vody Airport (URMM)

Arrival

Time 2026-04-20 19:22
Airport Sochi International Airport (URSS)
Time Latitude Longitude Altitude Speed Heading
2026-04-20 18:24 44.21836 43.08857 1053 ft 0 kts 210°
2026-04-20 18:34 44.21848 43.08867 1053 ft 2 kts 210°
2026-04-20 18:34 44.21861 43.08878 1053 ft 1 kts 211°
2026-04-20 18:35 44.21870 43.08884 1053 ft 2 kts 204°
2026-04-20 18:35 44.21884 43.08889 1053 ft 2 kts 179°
2026-04-20 18:35 44.21899 43.08885 1053 ft 2 kts 158°
2026-04-20 18:35 44.21912 43.08875 1053 ft 2 kts 137°
2026-04-20 18:36 44.21919 43.08865 1053 ft 0 kts 124°
2026-04-20 18:36 44.21922 43.08857 1053 ft 0 kts 121°
2026-04-20 18:38 44.21917 43.08867 1053 ft 5 kts 121°
2026-04-20 18:38 44.21873 43.08964 1053 ft 17 kts 123°
2026-04-20 18:38 44.21779 43.09155 1053 ft 29 kts 121°
2026-04-20 18:38 44.21660 43.09378 1053 ft 28 kts 124°
2026-04-20 18:39 44.21554 43.09608 1053 ft 27 kts 123°
2026-04-20 18:39 44.21524 43.09856 1053 ft 25 kts 76°
2026-04-20 18:39 44.21559 43.10055 1053 ft 20 kts 76°
2026-04-20 18:39 44.21613 43.10234 1053 ft 21 kts 40°
2026-04-20 18:40 44.21765 43.10308 1053 ft 24 kts 322°
2026-04-20 18:40 44.21861 43.10109 1053 ft 26 kts 302°
2026-04-20 18:40 44.22068 43.09649 1053 ft 91 kts 302°
2026-04-20 18:40 44.22521 43.08645 1054 ft 152 kts 301°
2026-04-20 18:41 44.23120 43.07310 1483 ft 168 kts 301°
2026-04-20 18:41 44.23742 43.05940 2232 ft 170 kts 302°
2026-04-20 18:41 44.24360 43.04575 3002 ft 169 kts 303°
2026-04-20 18:41 44.24985 43.03196 3595 ft 172 kts 304°
2026-04-20 18:42 44.25647 43.01731 3994 ft 185 kts 303°
2026-04-20 18:42 44.26351 43.00170 4404 ft 197 kts 303°
2026-04-20 18:42 44.27114 42.98477 4742 ft 215 kts 302°
2026-04-20 18:42 44.27930 42.96667 5160 ft 231 kts 302°
2026-04-20 18:43 44.28819 42.94695 5600 ft 247 kts 301°
2026-04-20 18:43 44.29750 42.92629 6109 ft 259 kts 301°
2026-04-20 18:43 44.30713 42.90496 6846 ft 261 kts 301°
2026-04-20 18:43 44.31585 42.88267 7582 ft 263 kts 291°
2026-04-20 18:44 44.31916 42.85811 8280 ft 265 kts 267°
2026-04-20 18:44 44.31531 42.83302 8919 ft 271 kts 248°
2026-04-20 18:44 44.30615 42.80973 9605 ft 275 kts 236°
2026-04-20 18:44 44.29505 42.78843 10260 ft 278 kts 233°
2026-04-20 18:45 44.28283 42.76642 10622 ft 294 kts 232°
2026-04-20 18:45 44.26997 42.74342 11118 ft 305 kts 232°
2026-04-20 18:45 44.25700 42.72001 11717 ft 311 kts 233°
2026-04-20 18:45 44.24370 42.69579 12421 ft 315 kts 233°
2026-04-20 18:46 44.23052 42.67171 13123 ft 318 kts 233°
2026-04-20 18:46 44.21708 42.64716 13789 ft 323 kts 233°
2026-04-20 18:46 44.20344 42.62180 14528 ft 326 kts 237°
2026-04-20 18:46 44.19328 42.59375 15214 ft 329 kts 252°
2026-04-20 18:47 44.18847 42.56305 15971 ft 330 kts 263°
2026-04-20 18:47 44.18603 42.53120 16656 ft 333 kts 265°
2026-04-20 18:47 44.18429 42.49914 17373 ft 335 kts 266°
2026-04-20 18:47 44.18267 42.46679 18040 ft 337 kts 266°
2026-04-20 18:48 44.18096 42.43443 18678 ft 340 kts 265°
2026-04-20 18:48 44.17910 42.40178 19327 ft 343 kts 265°
2026-04-20 18:48 44.17711 42.36845 19972 ft 345 kts 265°
2026-04-20 18:48 44.17506 42.33536 20598 ft 347 kts 264°
2026-04-20 18:49 44.17297 42.30199 21193 ft 350 kts 264°
2026-04-20 18:49 44.17083 42.26833 21798 ft 351 kts 264°
2026-04-20 18:49 44.16867 42.23447 22335 ft 355 kts 264°
2026-04-20 18:49 44.16649 42.20026 22897 ft 357 kts 264°
2026-04-20 18:50 44.16428 42.16596 23452 ft 359 kts 264°
2026-04-20 18:50 44.16204 42.13111 23946 ft 363 kts 264°
2026-04-20 18:50 44.15976 42.09603 24461 ft 365 kts 264°
2026-04-20 18:50 44.15747 42.06080 24961 ft 368 kts 264°
2026-04-20 18:51 44.15514 42.02515 25442 ft 371 kts 264°
2026-04-20 18:51 44.15282 41.98987 25955 ft 373 kts 264°
2026-04-20 18:51 44.15042 41.95357 26432 ft 375 kts 264°
2026-04-20 18:51 44.14802 41.91744 26881 ft 378 kts 264°
2026-04-20 18:52 44.14556 41.88055 27347 ft 380 kts 264°
2026-04-20 18:52 44.14313 41.84419 27816 ft 381 kts 264°
2026-04-20 18:52 44.14063 41.80710 28027 ft 386 kts 264°
2026-04-20 18:52 44.13814 41.77024 28034 ft 385 kts 264°
2026-04-20 18:53 44.13311 41.69634 28027 ft 383 kts 264°
2026-04-20 18:53 44.12800 41.62220 28019 ft 384 kts 264°
2026-04-20 18:54 44.12282 41.54791 28016 ft 385 kts 264°
2026-04-20 18:54 44.11418 41.47494 28010 ft 385 kts 255°
2026-04-20 18:55 44.09631 41.40439 28003 ft 385 kts 249°
2026-04-20 18:55 44.08588 41.37003 27998 ft 386 kts 248°
2026-04-20 18:55 44.07523 41.33581 27993 ft 387 kts 247°
2026-04-20 18:56 44.06502 41.30323 27989 ft 387 kts 247°
2026-04-20 18:56 44.05440 41.26919 27988 ft 387 kts 247°
2026-04-20 18:56 44.04377 41.23495 27990 ft 387 kts 247°
2026-04-20 18:56 44.03308 41.20044 27985 ft 386 kts 248°
2026-04-20 18:57 44.02242 41.16589 27987 ft 386 kts 248°
2026-04-20 18:57 44.01198 41.13202 27983 ft 386 kts 248°
2026-04-20 18:57 44.00145 41.09782 27984 ft 387 kts 248°
2026-04-20 18:57 43.99090 41.06359 27987 ft 386 kts 248°
2026-04-20 18:58 43.98035 41.02939 27984 ft 386 kts 248°
2026-04-20 18:58 43.96978 40.99517 27986 ft 386 kts 248°
2026-04-20 18:58 43.95920 40.96097 27986 ft 387 kts 248°
2026-04-20 18:58 43.94853 40.92650 27984 ft 386 kts 248°
2026-04-20 18:59 43.93796 40.89242 27985 ft 386 kts 248°
2026-04-20 18:59 43.92722 40.85781 27842 ft 395 kts 248°
2026-04-20 18:59 43.91643 40.82306 27567 ft 398 kts 248°
2026-04-20 18:59 43.90555 40.78810 27296 ft 394 kts 248°
2026-04-20 19:00 43.89473 40.75340 27022 ft 392 kts 248°
2026-04-20 19:00 43.88384 40.71849 26745 ft 392 kts 248°
2026-04-20 19:00 43.87299 40.68391 26482 ft 391 kts 248°
2026-04-20 19:00 43.86212 40.64958 26210 ft 390 kts 248°
2026-04-20 19:01 43.85130 40.61559 25940 ft 389 kts 248°
2026-04-20 19:01 43.84036 40.58137 25665 ft 387 kts 248°
2026-04-20 19:01 43.82955 40.54759 25398 ft 386 kts 248°
2026-04-20 19:01 43.81868 40.51363 25127 ft 385 kts 248°
2026-04-20 19:02 43.80783 40.47979 24854 ft 385 kts 248°
2026-04-20 19:02 43.79710 40.44634 24584 ft 384 kts 248°
2026-04-20 19:02 43.78622 40.41245 24312 ft 382 kts 248°
2026-04-20 19:02 43.77548 40.37901 24051 ft 381 kts 248°
2026-04-20 19:03 43.76482 40.34591 23694 ft 375 kts 247°
2026-04-20 19:03 43.75434 40.31338 23236 ft 371 kts 247°
2026-04-20 19:03 43.74393 40.28109 22710 ft 369 kts 247°
2026-04-20 19:03 43.73348 40.24871 22180 ft 367 kts 247°
2026-04-20 19:04 43.72308 40.21649 21650 ft 365 kts 247°
2026-04-20 19:04 43.71285 40.18493 21142 ft 363 kts 246°
2026-04-20 19:04 43.70158 40.15393 20619 ft 361 kts 241°
2026-04-20 19:04 43.68704 40.12576 20111 ft 360 kts 229°
2026-04-20 19:05 43.66856 40.10287 20003 ft 358 kts 218°
2026-04-20 19:05 43.64733 40.08376 19991 ft 370 kts 211°
2026-04-20 19:05 43.62473 40.06728 19985 ft 373 kts 207°
2026-04-20 19:05 43.60111 40.05201 19976 ft 372 kts 205°
2026-04-20 19:06 43.57744 40.03749 19980 ft 373 kts 205°
2026-04-20 19:06 43.55395 40.02326 19973 ft 372 kts 205°
2026-04-20 19:06 43.53032 40.00890 19975 ft 372 kts 205°
2026-04-20 19:06 43.50676 39.99448 19984 ft 372 kts 205°
2026-04-20 19:07 43.48292 39.97980 19994 ft 372 kts 205°
2026-04-20 19:07 43.45967 39.96542 19888 ft 372 kts 205°
2026-04-20 19:07 43.43564 39.95192 19487 ft 368 kts 201°
2026-04-20 19:07 43.41172 39.94047 18977 ft 366 kts 199°
2026-04-20 19:08 43.38748 39.92982 18480 ft 363 kts 198°
2026-04-20 19:08 43.33978 39.90937 17458 ft 357 kts 198°
2026-04-20 19:08 43.31647 39.89913 16960 ft 355 kts 198°
2026-04-20 19:09 43.29292 39.88861 16425 ft 353 kts 199°
2026-04-20 19:09 43.26993 39.87823 15822 ft 350 kts 199°
2026-04-20 19:09 43.24703 39.86785 15045 ft 346 kts 199°
2026-04-20 19:09 43.22429 39.85753 14223 ft 343 kts 199°
2026-04-20 19:10 43.20184 39.84734 13511 ft 339 kts 199°
2026-04-20 19:10 43.17940 39.83716 12888 ft 340 kts 199°
2026-04-20 19:10 43.16886 39.83237 12639 ft 339 kts 199°
2026-04-20 19:10 43.16046 39.82856 12456 ft 338 kts 199°
2026-04-20 19:11 43.13815 39.81846 11988 ft 335 kts 198°
2026-04-20 19:11 43.11647 39.80870 11634 ft 326 kts 198°
2026-04-20 19:11 43.09523 39.79918 11352 ft 311 kts 198°
2026-04-20 19:11 43.07520 39.79017 11074 ft 298 kts 198°
2026-04-20 19:12 43.05575 39.78138 10640 ft 292 kts 198°
2026-04-20 19:12 43.03719 39.77065 10166 ft 291 kts 213°
2026-04-20 19:12 43.02295 39.75155 9611 ft 289 kts 239°
2026-04-20 19:12 43.01610 39.72636 9068 ft 287 kts 263°
2026-04-20 19:13 43.01730 39.69937 8518 ft 285 kts 285°
2026-04-20 19:13 43.02537 39.67516 7900 ft 284 kts 309°
2026-04-20 19:13 43.03999 39.65778 7297 ft 282 kts 332°
2026-04-20 19:13 43.05814 39.64837 6851 ft 275 kts 349°
2026-04-20 19:14 43.07699 39.64710 6482 ft 271 kts 11°
2026-04-20 19:14 43.09420 39.65616 6107 ft 266 kts 34°
2026-04-20 19:14 43.10908 39.67038 5894 ft 252 kts 36°
2026-04-20 19:14 43.12289 39.68361 5741 ft 239 kts 35°
2026-04-20 19:15 43.13647 39.69630 5461 ft 232 kts 35°
2026-04-20 19:15 43.14986 39.70875 5137 ft 233 kts 35°
2026-04-20 19:15 43.16324 39.72121 4791 ft 234 kts 35°
2026-04-20 19:15 43.17671 39.73379 4431 ft 236 kts 35°
2026-04-20 19:16 43.19030 39.74651 4079 ft 238 kts 35°
2026-04-20 19:16 43.20392 39.75927 3726 ft 239 kts 35°
2026-04-20 19:16 43.21773 39.77220 3369 ft 240 kts 35°
2026-04-20 19:16 43.23160 39.78518 3008 ft 241 kts 35°
2026-04-20 19:17 43.24546 39.79819 2654 ft 242 kts 35°
2026-04-20 19:17 43.25932 39.81124 2301 ft 243 kts 35°
2026-04-20 19:17 43.27341 39.82426 2005 ft 241 kts 32°
2026-04-20 19:17 43.28737 39.83542 1976 ft 225 kts 28°
2026-04-20 19:18 43.30085 39.84507 1967 ft 209 kts 28°
2026-04-20 19:18 43.31307 39.85397 1968 ft 191 kts 29°
2026-04-20 19:18 43.32433 39.86244 1964 ft 176 kts 29°
2026-04-20 19:18 43.33466 39.87017 1986 ft 163 kts 29°
2026-04-20 19:19 43.34454 39.87754 1952 ft 164 kts 29°
2026-04-20 19:19 43.35452 39.88497 1822 ft 155 kts 29°
2026-04-20 19:19 43.36387 39.89195 1579 ft 150 kts 29°
2026-04-20 19:19 43.37277 39.89861 1362 ft 143 kts 29°
2026-04-20 19:20 43.38157 39.90517 1211 ft 145 kts 29°
2026-04-20 19:20 43.39040 39.91177 1011 ft 143 kts 29°
2026-04-20 19:20 43.39912 39.91827 833 ft 142 kts 29°
2026-04-20 19:20 43.40782 39.92476 641 ft 143 kts 29°
2026-04-20 19:21 43.41659 39.93123 458 ft 142 kts 28°
2026-04-20 19:21 43.42529 39.93777 282 ft 141 kts 29°
2026-04-20 19:21 43.43391 39.94420 98 ft 138 kts 29°
2026-04-20 19:21 43.44127 39.94978 55 ft 85 kts 28°
2026-04-20 19:22 43.44438 39.95212 61 ft 32 kts 28°
2026-04-20 19:22 43.44619 39.95348 63 ft 30 kts 29°
2026-04-20 19:22 43.44829 39.95507 67 ft 38 kts 27°
2026-04-20 19:22 43.45013 39.95541 69 ft 24 kts 336°
2026-04-20 19:23 43.45054 39.95447 70 ft 10 kts 249°
2026-04-20 19:23 43.45023 39.95348 68 ft 12 kts 245°
2026-04-20 19:23 43.44980 39.95231 63 ft 16 kts 245°
2026-04-20 19:23 43.44908 39.95032 52 ft 29 kts 245°
2026-04-20 19:24 43.44817 39.94764 50 ft 31 kts 245°
2026-04-20 19:24 43.44725 39.94495 51 ft 30 kts 245°
2026-04-20 19:24 43.44642 39.94252 55 ft 27 kts 244°
2026-04-20 19:24 43.44565 39.94029 48 ft 25 kts 245°
2026-04-20 19:25 43.44527 39.93869 48 ft 10 kts 313°
2026-04-20 19:25 43.44564 39.93870 48 ft 0 kts 360°